Regional Weather Roundup
Issued by NWS Midland/Odessa, TX

Home | Current Version | Previous Version | Text Only | Print | Product List | Glossary On
Versions: 1 2 3 4 5 6 7 8 9 10 11 12 13 14 15 16 17 18 19 20 21 22 23 24 25 26 27 28 29 30 31 32 33 34 35 36 37 38 39 40 41 42 43 44 45 46 47 48 49 50
000
ASUS44 KMAF 261610
RWRMAF
MIDLAND AREA WEATHER ROUNDUP
NATIONAL WEATHER SERVICE MIDLAND TX
1100 AM CDT TUE JUL 26 2016

...IN SOUTHWEST TEXAS AND SOUTHEAST NEW MEXICO...

CITY           SKY/WX    TMP DP  RH WIND       PRES   REMARKS
ALPINE         SUNNY     83  57  41 NE6       30.23S
ANDREWS        FAIR      86  60  42 NE10      30.10F
ARTESIA        CLOUDY    79  64  61 NE12      30.15S
BIG SPRING     CLOUDY    83  68  61 N10       30.09S
CARLSBAD       SUNNY     84  59  42 N7        30.11S
DRYDEN           N/A     86  69  56 VRB3      30.00F
FORT STOCKTON  SUNNY     86  63  45 VRB3      30.07F
GUAD PASS      SUNNY     79  57  46 E15       30.25S
HOBBS          SUNNY     86  57  37 NE14G20   30.14S
MARFA          SUNNY     84  57  39 VRB5      30.20F
MIDLAND AIRPK  CLOUDY    86  62  44 NE6       30.08F
MIDLAND INTL   PTSUNNY   86  63  45 N9        30.08S
ODESSA         SUNNY     86  62  44 NE13G20   30.09F
PECOS          SUNNY     87  61  41 NE3       30.06S
PRESIDIO       FAIR      91  60  34 E5        30.03F
SEMINOLE       SUNNY     85  58  39 NE13      30.12S
SNYDER           N/A     82  68  63 N3        30.07R
WINK           MOSUNNY   87  61  41 NE10      30.06F
$$
...OTHER STATIONS IN TEXAS...

CITY           SKY/WX    TMP DP  RH WIND       PRES   REMARKS
ABILENE        SUNNY     88  67  49 N6        30.03F
AMARILLO       SUNNY     85  58  39 NW10      30.13F
AUSTIN         PTSUNNY   83  75  77 VRB3      29.96S
BROWNSVILLE    MOSUNNY   92  73  53 S16G24    29.92R HX 100
CORPUS CHRISTI PTSUNNY   88  75  65 S6        29.93R
DALLAS FTW     MOSUNNY   89  72  56 SE5       29.97F
DEL RIO        CLOUDY    88  69  53 SE7       29.94S
EL PASO        MOSUNNY   84  58  40 N10       30.14F
HOUSTON INT    PTSUNNY   85  76  74 NE7       29.94F
LUBBOCK        MOSUNNY   84  60  44 N10       30.11F
SAN ANGELO     SUNNY     87  69  54 N3        30.02F
SAN ANTONIO    CLOUDY    81  74  79 E7        29.97S
WACO           MOSUNNY   86  73  65 N5        29.97S
WICHITA FALLS  NOT AVBL
$$
...OTHER LOCATIONS IN NEW MEXICO...

CITY           SKY/WX    TMP DP  RH WIND       PRES   REMARKS
ALAMAGORDO     CLOUDY    81  55  41 NE5       30.17F
ALBUQUERQUE    CLOUDY    76  58  53 W7        30.28S
CANNON AFB     MOSUNNY   80  63  55 VRB6      30.17F
CLOVIS         SUNNY     81  57  44 NW9       30.17F
HOLLOMAN AFB   CLOUDY    77  62  60 NE6       30.15F
ROSWELL        SUNNY     78  64  61 NE7       30.15F
RUIDOSO          N/A     72  50  46 S5        30.37F
SANTA FE       SUNNY     75  55  49 CALM      30.32F
TRUTH OR CONSE MOSUNNY   80  57  45 CALM      30.20F
TUCUMCARI      SUNNY     80  62  54 VRB6      30.15F
$$



USA.gov is the U.S. government's official web portal to all federal, state and local government web resources and services.